TimeEST,TemperatureF,Dew PointF,Humidity,Sea Level PressureIn,VisibilityMPH,Wind Direction,Wind SpeedMPH,Gust SpeedMPH,PrecipitationIn,Events,Conditions,WindDirDegrees,DateUTC
12:09 AM,46.4,46.4,100,29.98,5.0,North,3.5,-,0.00,Rain,Light Rain,360,2013-01-16 05:09:00
12:29 AM,46.4,46.4,100,29.96,2.5,Calm,Calm,-,0.00,,Overcast,0,2013-01-16 05:29:00
12:50 AM,46.4,46.4,100,29.96,4.0,Calm,Calm,-,0.00,,Overcast,0,2013-01-16 05:50:00
12:53 AM,46.0,46.0,100,29.95,5.0,Calm,Calm,-,0.00,,Overcast,0,2013-01-16 05:53:00
1:29 AM,46.4,46.4,100,29.94,10.0,Calm,Calm,-,0.00,,Overcast,0,2013-01-16 06:29:00
1:49 AM,46.4,46.4,100,29.94,10.0,Calm,Calm,-,0.00,,Overcast,0,2013-01-16 06:49:00
1:53 AM,46.9,46.9,100,29.94,9.0,Calm,Calm,-,0.00,,Overcast,0,2013-01-16 06:53:00
2:19 AM,46.4,46.4,100,29.94,2.0,NE,3.5,-,0.04,Rain,Heavy Rain,40,2013-01-16 07:19:00
2:33 AM,46.4,46.4,100,29.94,1.2,Calm,Calm,-,0.16,Rain,Heavy Rain,0,2013-01-16 07:33:00
2:45 AM,46.4,46.4,100,29.94,3.0,Calm,Calm,-,0.26,Rain,Light Rain,0,2013-01-16 07:45:00
2:49 AM,46.4,46.4,100,29.94,3.0,East,3.5,-,0.27,Rain,Rain,100,2013-01-16 07:49:00
2:53 AM,46.9,46.9,100,29.93,3.0,East,3.5,-,0.29,Rain,Rain,80,2013-01-16 07:53:00
3:23 AM,46.4,46.4,100,29.93,5.0,Calm,Calm,-,0.03,Rain,Light Rain,0,2013-01-16 08:23:00
3:49 AM,46.4,46.4,100,29.94,7.0,WNW,5.8,-,N/A,Rain,Light Rain,300,2013-01-16 08:49:00
3:53 AM,46.9,46.9,100,29.94,5.0,NW,3.5,-,0.05,Rain,Light Rain,320,2013-01-16 08:53:00
4:46 AM,48.2,48.2,100,29.94,10.0,Calm,Calm,-,0.03,,Overcast,0,2013-01-16 09:46:00
4:53 AM,48.0,48.0,100,29.93,10.0,Calm,Calm,-,0.03,,Overcast,0,2013-01-16 09:53:00
5:02 AM,48.2,48.2,100,29.93,10.0,SE,3.5,-,N/A,,Overcast,140,2013-01-16 10:02:00
5:14 AM,48.2,48.2,100,29.93,10.0,Calm,Calm,-,N/A,,Overcast,0,2013-01-16 10:14:00
5:23 AM,48.2,48.2,100,29.94,10.0,Calm,Calm,-,N/A,,Overcast,0,2013-01-16 10:23:00
5:49 AM,48.2,48.2,100,29.94,10.0,Calm,Calm,-,N/A,,Overcast,0,2013-01-16 10:49:00
5:53 AM,48.0,48.0,100,29.94,10.0,Calm,Calm,-,N/A,,Overcast,0,2013-01-16 10:53:00
6:08 AM,48.2,48.2,100,29.95,10.0,Calm,Calm,-,N/A,,Overcast,0,2013-01-16 11:08:00
6:17 AM,48.2,48.2,100,29.96,10.0,Calm,Calm,-,N/A,,Overcast,0,2013-01-16 11:17:00
6:24 AM,48.2,48.2,100,29.97,10.0,South,3.5,-,N/A,,Overcast,190,2013-01-16 11:24:00
6:53 AM,48.9,48.9,100,29.97,10.0,Calm,Calm,-,N/A,,Overcast,0,2013-01-16 11:53:00
7:18 AM,48.2,48.2,100,29.99,10.0,Calm,Calm,-,N/A,,Overcast,0,2013-01-16 12:18:00
7:53 AM,48.9,48.9,100,30.00,10.0,Calm,Calm,-,N/A,,Overcast,0,2013-01-16 12:53:00
8:53 AM,48.9,48.9,100,29.99,7.0,ESE,3.5,-,N/A,,Overcast,110,2013-01-16 13:53:00
9:53 AM,50.0,50.0,100,30.02,6.0,South,3.5,-,N/A,,Overcast,190,2013-01-16 14:53:00
10:53 AM,51.1,50.0,96,30.02,7.0,West,3.5,-,N/A,,Overcast,280,2013-01-16 15:53:00
11:06 AM,51.8,51.8,100,30.02,9.0,Calm,Calm,-,N/A,,Overcast,0,2013-01-16 16:06:00
11:53 AM,51.1,51.1,100,30.01,10.0,WNW,4.6,-,N/A,,Overcast,300,2013-01-16 16:53:00
12:38 PM,51.8,50.0,94,30.03,3.0,West,4.6,-,0.01,Rain,Light Rain,280,2013-01-16 17:38:00
12:53 PM,51.1,50.0,96,30.01,3.0,Calm,Calm,-,0.02,Rain,Light Rain,0,2013-01-16 17:53:00
1:05 PM,51.8,50.0,94,30.02,5.0,NNW,3.5,-,0.01,Rain,Light Rain,330,2013-01-16 18:05:00
1:24 PM,51.8,50.0,94,30.02,3.0,Calm,Calm,-,0.02,Rain,Light Rain,0,2013-01-16 18:24:00
1:36 PM,51.8,51.8,100,30.01,3.0,Calm,Calm,-,0.03,Rain,Light Rain,0,2013-01-16 18:36:00
1:53 PM,52.0,51.1,97,29.99,7.0,Calm,Calm,-,0.03,Rain,Light Rain,0,2013-01-16 18:53:00
2:01 PM,51.8,50.0,94,29.99,9.0,Calm,Calm,-,0.00,Rain,Light Rain,0,2013-01-16 19:01:00
2:27 PM,51.8,50.0,94,29.97,5.0,Calm,Calm,-,0.01,Rain,Light Rain,0,2013-01-16 19:27:00
2:50 PM,51.8,51.8,100,29.97,10.0,Calm,Calm,-,0.02,Rain,Light Rain,0,2013-01-16 19:50:00
2:53 PM,51.8,51.8,100,29.97,10.0,Calm,Calm,-,N/A,Rain,Light Rain,0,2013-01-16 19:53:00
3:53 PM,52.0,51.1,97,29.97,10.0,NW,4.6,-,0.01,,Overcast,310,2013-01-16 20:53:00
4:53 PM,52.0,52.0,100,29.99,10.0,Calm,Calm,-,0.00,,Overcast,0,2013-01-16 21:53:00
5:53 PM,51.1,50.0,96,30.01,7.0,NNW,5.8,-,0.00,Rain,Light Rain,340,2013-01-16 22:53:00
6:53 PM,51.1,50.0,96,30.02,7.0,Calm,Calm,-,0.00,Rain,Light Rain,0,2013-01-16 23:53:00
7:04 PM,51.8,50.0,94,30.02,6.0,NNW,4.6,-,0.01,Rain,Light Rain,340,2013-01-17 00:04:00
7:53 PM,50.0,48.9,96,30.02,7.0,NNW,4.6,-,0.06,Rain,Light Rain,340,2013-01-17 00:53:00
8:30 PM,48.2,48.2,100,30.03,10.0,Calm,Calm,-,0.02,,Overcast,0,2013-01-17 01:30:00
8:53 PM,48.9,48.0,97,30.01,10.0,North,6.9,-,0.02,Rain,Light Rain,360,2013-01-17 01:53:00
9:01 PM,48.2,48.2,100,30.02,10.0,North,6.9,-,0.00,Rain,Light Rain,10,2013-01-17 02:01:00
9:53 PM,48.0,46.9,96,30.01,10.0,NNE,4.6,-,0.00,,Overcast,20,2013-01-17 02:53:00
10:53 PM,46.9,46.0,97,30.00,10.0,NNW,3.5,-,0.00,,Overcast,330,2013-01-17 03:53:00
11:02 PM,46.4,44.6,93,30.00,10.0,North,4.6,-,0.00,Rain,Light Rain,10,2013-01-17 04:02:00
11:30 PM,46.4,44.6,93,30.00,10.0,NNW,6.9,-,0.00,Rain,Light Rain,340,2013-01-17 04:30:00
11:44 PM,46.4,44.6,93,30.01,10.0,NNW,6.9,-,0.01,Rain,Light Rain,330,2013-01-17 04:44:00
11:53 PM,46.0,45.0,96,29.99,9.0,NNW,8.1,-,0.01,Rain,Light Rain,340,2013-01-17 04:53:00